Weather History for KFMH - January, 2014

Change the Weather History Date:

Tuesday, January 21, 2014

  Actual Average Record
Temperature  
Mean Temperature 24 °F -  
Max Temperature 32 °F 32 °F 53 °F (2006)
Min Temperature 15 °F 16 °F -4 °F (2005)
Degree Days  
Heating Degree Days 42    
Moisture  
Dew Point 11 °F    
Average Humidity 65    
Maximum Humidity 93    
Minimum Humidity 28    
Precipitation  
Precipitation 0.00 in - - ()
Sea Level Pressure  
Sea Level Pressure 29.92 in    
Wind  
Wind Speed 11 mph (North)    
Max Wind Speed 25 mph    
Max Gust Speed 33 mph    
Visibility 6 miles    
Events Snow    
Averages and records for this station are not official NWS values.
T = Trace of Precipitation, MM = Missing Value Source: NWS Daily Summary

Daily Weather History Graph

Daily Weather History Graph

Search for Another Location

Airport or City:

Trip Planner

Search our weather history database for the weather conditions in past years. The results will help you decide how hot, cold, wet, or windy it might be!

Date:

Astronomy

Jan. 21, 2014 Rise Set
Actual Time 7:03 AM EST 4:43 PM EST
Civil Twilight 6:33 AM EST 5:14 PM EST
Nautical Twilight 5:59 AM EST 5:48 PM EST
Astronomical Twilight 5:26 AM EST 6:21 PM EST
Moon 10:18 PM EST (1/21) 9:26 AM EST (1/21)
Length of Visible Light 10h 41m
Length of Day
9h 40m
Waning Gibbous, 75% of the Moon is Illuminated
Jan 21
Waning Gibbous
Jan 24
Last Quarter
Jan 30
New
Feb 6
First Quarter
Feb 14
Full

Hourly Weather History & Observations

Time (EST) Temp. Windchill Dew Point Humidity Pressure Visibility Wind Dir Wind Speed Gust Speed Precip Events Conditions
12:15 AM 32.0 °F 23.6 °F 15.8 °F 51% 29.85 in 10.0 mi NNW 10.4 mph - N/A   Overcast
12:35 AM 30.2 °F 21.9 °F 14.0 °F 51% 29.86 in 10.0 mi NW 9.2 mph - N/A   Overcast
12:55 AM 28.4 °F 16.6 °F 10.4 °F 47% 29.87 in 10.0 mi WNW 16.1 mph 21.9 mph N/A   Overcast
1:15 AM 28.4 °F 21.2 °F 10.4 °F 47% 29.89 in 10.0 mi NW 6.9 mph - N/A   Overcast
1:35 AM 28.4 °F 20.4 °F 8.6 °F 43% 29.90 in 10.0 mi NW 8.1 mph - N/A   Overcast
1:55 AM 26.6 °F 17.5 °F 8.6 °F 47% 29.91 in 10.0 mi NNW 9.2 mph - N/A   Overcast
2:15 AM 26.6 °F 20.0 °F 8.6 °F 47% 29.91 in 10.0 mi NNW 5.8 mph - N/A   Overcast
2:35 AM 26.6 °F 20.0 °F 8.6 °F 47% 29.93 in 10.0 mi North 5.8 mph - N/A   Overcast
2:55 AM 26.6 °F 17.5 °F 6.8 °F 43% 29.93 in 10.0 mi NNW 9.2 mph - N/A   Overcast
3:15 AM 24.8 °F 17.9 °F 6.8 °F 46% 29.93 in 10.0 mi North 5.8 mph - N/A   Overcast
3:35 AM 24.8 °F 17.9 °F 5.0 °F 43% 29.94 in 10.0 mi North 5.8 mph - N/A   Overcast
3:55 AM 24.8 °F 16.1 °F 5.0 °F 43% 29.94 in 10.0 mi North 8.1 mph - N/A   Overcast
4:15 AM 24.8 °F 16.9 °F 5.0 °F 43% 29.94 in 10.0 mi North 6.9 mph - N/A   Overcast
4:35 AM 23.0 °F 15.8 °F 5.0 °F 46% 29.95 in 10.0 mi North 5.8 mph - N/A   Overcast
4:55 AM 23.0 °F 14.7 °F 1.4 °F 39% 29.95 in 10.0 mi North 6.9 mph - N/A   Overcast
5:15 AM 23.0 °F 17.0 °F -0.4 °F 36% 29.96 in 10.0 mi North 4.6 mph - N/A   Overcast
5:35 AM 21.2 °F 10.9 °F -7.6 °F 28% 29.97 in 10.0 mi NNW 9.2 mph - N/A   Overcast
5:55 AM 19.4 °F 9.5 °F -7.6 °F 30% 29.98 in 10.0 mi NNW 8.1 mph - N/A   Overcast
6:15 AM 19.4 °F 11.5 °F -4.0 °F 36% 30.00 in 10.0 mi NNW 5.8 mph - N/A   Mostly Cloudy
6:35 AM 19.4 °F 11.5 °F -2.2 °F 39% 30.00 in 10.0 mi NNW 5.8 mph - N/A   Mostly Cloudy
6:55 AM 19.4 °F 9.5 °F -0.4 °F 42% 30.00 in 10.0 mi NNW 8.1 mph - N/A   Overcast
7:15 AM 19.4 °F 11.5 °F -2.2 °F 39% 30.01 in 10.0 mi NNW 5.8 mph - N/A   Mostly Cloudy
7:35 AM 19.4 °F 10.4 °F -0.4 °F 42% 30.01 in 10.0 mi NNW 6.9 mph - N/A   Partly Cloudy
7:55 AM 21.2 °F 11.7 °F 1.4 °F 42% 30.00 in 10.0 mi NNW 8.1 mph - N/A   Scattered Clouds
8:15 AM 21.2 °F 13.6 °F 6.8 °F 54% 30.01 in 10.0 mi North 5.8 mph - N/A   Overcast
8:35 AM 21.2 °F 12.6 °F 10.4 °F 63% 30.01 in 10.0 mi North 6.9 mph - N/A   Overcast
8:55 AM 21.2 °F 10.9 °F 10.4 °F 63% 30.00 in 10.0 mi North 9.2 mph - N/A   Overcast
9:15 AM 21.2 °F 10.9 °F 10.4 °F 63% 30.00 in 10.0 mi NNE 9.2 mph - N/A   Overcast
9:35 AM 21.2 °F 10.1 °F 8.6 °F 58% 30.01 in 10.0 mi NNE 10.4 mph 17.3 mph N/A   Mostly Cloudy
9:55 AM 21.2 °F 8.9 °F 8.6 °F 58% 30.02 in 10.0 mi NNE 12.7 mph 18.4 mph N/A   Scattered Clouds
10:15 AM 19.4 °F 7.2 °F 8.6 °F 63% 30.03 in 10.0 mi NE 11.5 mph 17.3 mph N/A   Scattered Clouds
10:35 AM 19.4 °F 6.6 °F 8.6 °F 63% 30.04 in 10.0 mi NE 12.7 mph 17.3 mph N/A   Mostly Cloudy
10:55 AM 19.4 °F 9.5 °F 8.6 °F 63% 30.02 in 6.0 mi NNE 8.1 mph - N/A Snow Light Snow
11:15 AM 19.4 °F 7.2 °F 10.4 °F 68% 30.02 in 6.0 mi NNE 11.5 mph - N/A Snow Light Snow
11:35 AM 19.4 °F 6.6 °F 8.6 °F 63% 30.01 in 8.0 mi North 12.7 mph 18.4 mph N/A Snow Light Snow
11:55 AM 19.4 °F 5.0 °F 8.6 °F 63% 30.00 in 10.0 mi NE 16.1 mph 23.0 mph N/A   Partly Cloudy
12:15 PM 17.6 °F 5.0 °F 8.6 °F 68% 30.00 in 7.0 mi NNE 11.5 mph - N/A Snow Light Snow
12:35 PM 17.6 °F 3.7 °F 10.4 °F 73% 30.00 in 1.8 mi NNE 13.8 mph 18.4 mph 0.01 in Snow Light Snow
12:55 PM 17.6 °F 6.4 °F 10.4 °F 73% 30.00 in 2.5 mi North 9.2 mph 17.3 mph 0.01 in Snow Light Snow
1:15 PM 17.6 °F 5.0 °F 10.4 °F 73% 29.99 in 3.0 mi NNE 11.5 mph 19.6 mph N/A Snow Light Snow
1:35 PM 17.6 °F 6.4 °F 10.4 °F 73% 29.99 in 2.5 mi North 9.2 mph - N/A Snow Light Snow
1:55 PM 17.6 °F 3.7 °F 10.4 °F 73% 29.95 in 1.8 mi NNE 13.8 mph 19.6 mph 0.01 in Snow Light Snow
2:15 PM 15.8 °F 1.4 °F 10.4 °F 79% 29.94 in 1.0 mi NNE 13.8 mph 23.0 mph 0.02 in Snow Light Snow
2:35 PM 15.8 °F 0.3 °F 10.4 °F 79% 29.92 in 1.2 mi NNE 16.1 mph 24.2 mph 0.07 in Snow Light Snow
2:55 PM 15.8 °F 2.1 °F 12.2 °F 86% 29.90 in 0.8 mi North 12.7 mph 24.2 mph 0.13 in Snow Light Snow
3:15 PM 15.8 °F 0.3 °F 12.2 °F 86% 29.86 in 0.8 mi NNE 16.1 mph 24.2 mph 0.06 in Snow Light Snow
3:35 PM 17.6 °F 2.7 °F 14.0 °F 86% 29.86 in 0.8 mi NNE 16.1 mph 26.5 mph 0.14 in Snow Light Snow
3:55 PM 17.6 °F 5.0 °F 14.0 °F 86% 29.87 in 0.8 mi NNE 11.5 mph 26.5 mph 0.23 in Snow Light Snow
4:15 PM 17.6 °F 4.3 °F 14.0 °F 86% 29.88 in 1.0 mi NNE 12.7 mph 19.6 mph 0.05 in Snow Light Snow
4:35 PM 17.6 °F 6.4 °F 15.8 °F 93% 29.92 in 0.8 mi NNE 9.2 mph 18.4 mph 0.15 in Snow Light Snow
4:55 PM 19.4 °F 6.6 °F 15.8 °F 86% 29.89 in 1.0 mi NNE 12.7 mph 17.3 mph 0.24 in Snow Light Snow
5:15 PM 19.4 °F 10.4 °F 15.8 °F 86% 29.90 in 0.8 mi NNE 6.9 mph - 0.40 in Snow Light Snow
5:35 PM 19.4 °F 7.9 °F 17.6 °F 93% 29.89 in 0.8 mi NNE 10.4 mph 16.1 mph 0.75 in Snow Light Snow
5:55 PM 19.4 °F 5.5 °F 17.6 °F 93% 29.89 in 1.0 mi NNE 15.0 mph 23.0 mph 1.37 in Snow Light Snow
6:15 PM 21.2 °F 7.3 °F 17.6 °F 86% 29.89 in 3.0 mi NE 16.1 mph 23.0 mph 0.13 in Snow Light Snow
6:35 PM 21.2 °F 7.8 °F 17.6 °F 86% 29.88 in 1.2 mi NE 15.0 mph 21.9 mph 0.39 in Snow Light Snow
6:55 PM 23.0 °F 10.6 °F 17.6 °F 80% 29.89 in 2.0 mi NE 13.8 mph 19.6 mph 0.54 in Snow Light Snow
7:15 PM 23.0 °F 11.7 °F 19.4 °F 86% 29.87 in 1.2 mi NNE 11.5 mph 23.0 mph 0.19 in Snow Light Snow
7:35 PM 23.0 °F 12.4 °F 17.6 °F 80% 29.88 in 1.8 mi NNE 10.4 mph 21.9 mph 0.40 in Snow Light Snow
7:55 PM 23.0 °F 9.2 °F 19.4 °F 86% 29.86 in 0.8 mi NNE 17.3 mph 23.0 mph 0.77 in Snow Light Snow
8:15 PM 23.0 °F 11.1 °F 19.4 °F 86% 29.87 in 1.0 mi NNE 12.7 mph 24.2 mph 0.33 in Snow Light Snow
8:35 PM 23.0 °F 10.1 °F 19.4 °F 86% 29.85 in 1.8 mi NNE 15.0 mph 28.8 mph 0.58 in Snow Light Snow
8:55 PM 23.0 °F 9.2 °F 19.4 °F 86% 29.82 in 1.2 mi NNE 17.3 mph 31.1 mph 1.09 in Snow Light Snow
9:15 PM 23.0 °F 9.6 °F 19.4 °F 86% 29.82 in 3.0 mi NNE 16.1 mph 27.6 mph 0.07 in Snow Light Snow
9:35 PM 23.0 °F 9.2 °F 19.4 °F 86% 29.84 in 2.5 mi NNE 17.3 mph 23.0 mph 0.14 in Snow Light Snow
9:55 PM 23.0 °F 9.2 °F 19.4 °F 86% 29.82 in 1.8 mi NNE 17.3 mph 26.5 mph 0.36 in Snow Light Snow
10:15 PM 23.0 °F 11.1 °F 19.4 °F 86% 29.80 in 2.0 mi NNE 12.7 mph 23.0 mph 0.16 in Snow Light Snow
10:35 PM 23.0 °F 8.3 °F 19.4 °F 86% 29.78 in 1.8 mi NNE 19.6 mph 33.4 mph 0.34 in Snow Light Snow
10:55 PM 24.8 °F 12.4 °F 21.2 °F 86% 29.77 in 2.0 mi NNE 15.0 mph 27.6 mph 0.49 in Snow Light Snow
11:15 PM 24.8 °F 11.9 °F 19.4 °F 80% 29.76 in 2.5 mi NNE 16.1 mph 28.8 mph 0.07 in Snow Light Snow
11:35 PM 24.8 °F 11.1 °F 19.4 °F 80% 29.75 in 1.5 mi NE 18.4 mph 26.5 mph 0.19 in Snow Light Snow
11:55 PM 23.0 °F 8.7 °F 19.4 °F 86% 29.75 in 1.5 mi NNE 18.4 mph 25.3 mph 0.44 in Snow Light Snow